Regional Weather Roundup
Issued by NWS Kansas City/Pleasant Hill, MO

Home | Current Version | Previous Version | Text Only | Print | Product List | Glossary On
Versions: 1 2 3 4 5 6 7 8 9 10 11 12 13 14 15 16 17 18 19 20 21 22 23 24 25 26 27 28 29 30 31 32 33 34 35 36 37 38 39 40 41 42 43 44 45 46 47 48 49 50
000
ASUS43 KEAX 022204
RWREAX

WEATHER ROUNDUP FOR EASTERN KANSAS AND NORTHWEST MISSOURI
NATIONAL WEATHER SERVICE KANSAS CITY/PLEASANT HILL MO
400 PM CST MON MAR 02 2015

KSZ040-057-103>105-MOZ028-029-037-043-022300-
...KANSAS CITY METROPOLITAN AREA...

CITY           SKY/WX    TMP DP  RH WIND       PRES   REMARKS
K.C. INTL      CLOUDY    37  18  46 SE14      30.26F WCI  28
K.C. DOWNTOWN  CLOUDY    38  17  42 SE15      30.27F WCI  29
LEES SUMMIT    CLOUDY    35  20  54 E12       30.27F WCI  27
OLATHE - IXD   CLOUDY    35  21  56 SE9       30.28F WCI  28
OLATHE - OJC   CLOUDY    35  20  54 E10       30.26F WCI  27
LAWRENCE       CLOUDY    37  19  48 SE17      30.26F WCI  27

$$

MOZ001>008-011>017-020>025-030>033-038>040-044>046-053-054-022300-
...NORTHERN AND CENTRAL MISSOURI...

CITY           SKY/WX    TMP DP  RH WIND       PRES   REMARKS
ST. JOSEPH     PTSUNNY   39  20  46 SE17      30.28F WCI  30
MOSBY            N/A     36  21  55 SE12      30.29F WCI  27
WARRENSBURG    CLOUDY    36  21  55 E8        30.29F WCI  29
WHITEMAN AFB   PTSUNNY   35  19  52 E10       30.28F WCI  27
CLINTON        CLOUDY    37  21  52 E7        30.30F WCI  32
SEDALIA        CLOUDY    35  20  54 E12       30.31F WCI  27
WARSAW         NOT AVBL
MARSHALL       PTSUNNY   37  23  56 SE12      30.35F WCI  30
CHILLICOTHE      N/A     37  20  50 SE9       30.32F WCI  30
MOBERLY        SUNNY     37  18  44 E10       30.35F WCI  30
KIRKSVILLE     PTSUNNY   34  21  59 E12       30.34F WCI  25

$$

MOZ041-047>049-056>058-063>065-088>090-097-022300-
...EASTERN AND SOUTHERN MISSOURI...

CITY           SKY/WX    TMP DP  RH WIND       PRES   REMARKS
ST. LOUIS INTL PTSUNNY   34  18  52 E9        30.40F WCI  27
SPIRIT OF STL  PTSUNNY   34  18  52 E6        30.38F WCI  29
COLUMBIA       PTSUNNY   35  17  47 SE14      30.32F WCI  26
JEFFERSON CITY PTSUNNY   37  18  46 E10       30.34F WCI  30
MEXICO         MOSUNNY   36  23  60 E9        30.35F WCI  29
HANNIBAL       MOSUNNY   37  16  41 E9        30.36F WCI  31
ROLLA          CLOUDY    35  18  49 E9        30.30F WCI  28
LEBANON        CLOUDY    37  21  52 SE9       30.30S WCI  31
OSAGE BEACH    CLOUDY    37  18  44 E7        30.31S WCI  32
SPRINGFIELD    CLOUDY    37  21  52 SE14G22   30.27F WCI  28
BRANSON        CLOUDY    34  25  69 SE8       30.30F WCI  27
NEVADA         CLOUDY    36  21  55 E7        30.29F WCI  30
JOPLIN         CLOUDY    36  23  59 SE12      30.26F WCI  28
WEST PLAINS    CLOUDY    37  19  48 S9        30.33S WCI  30

$$

IAZ060-094-KSZ022-034>040-054-083-096-NEZ052-066-093-022300-
...KANSAS...SOUTHEAST NEBRASKA AND IOWA...

CITY           SKY/WX    TMP DP  RH WIND       PRES   REMARKS
TOPEKA         CLOUDY    38  17  42 SE15G24   30.23F WCI  29
MANHATTAN      CLOUDY    37  17  44 SE15      30.19F WCI  28
EMPORIA        CLOUDY    34  21  59 SE17      30.21F WCI  23
CHANUTE        CLOUDY    36  22  56 SE10      30.25F WCI  28
WICHITA        CLOUDY    35  24  64 S12       30.17F WCI  27
OMAHA          CLOUDY    41  20  43 SE20      30.18F WCI  32
LINCOLN        SUNNY     42  18  37 S22G29    30.16F WCI  33
FALLS CITY     PTSUNNY   41  18  39 SE14      30.21F WCI  33
LAMONI         MOSUNNY   34  19  54 SE12      30.28F WCI  25
DES MOINES     CLOUDY    32  16  51 SE12      30.31F WCI  23

$$




USA.gov is the U.S. government's official web portal to all federal, state and local government web resources and services.